Location: Castle
(40.7167°S, 175.9500°E)
Time: 04:26:18
(UTC+00:00)

CZ-2D R/B - Pass Details

Date: 04 August 2024
Orbit: 538 x 611 km, 98.0° (Epoch: 07 September)

Event Time Altitude Azimuth Distance (km) Brightness Sun altitude
Rises 17:25:05 0° 3° (N) 2,873 7.1 -21.7°
Reaches altitude 10° 17:27:17 10° 358° (N) 1,980 6.2 -21.3°
Maximum altitude 17:31:31 54° 280° (W) 763 3.6 -20.5°
Enters shadow 17:31:55 52° 258° (WSW) 784 3.6 -20.4°
